Location: Aufkirchen
(47.9603°N, 11.3653°E)
Time: 22:50:51
(UTC+01:00)

Courier 1B Rocket - Visible Passes

Search period start: 30 January 2023 00:00
Search period end: 09 February 2023 00:00
Orbit: 920 x 1202 km, 28.3° (Epoch: 30 January)

Date Brightness Start Highest point End Pass type
(mag) Time Alt. Az. Time Alt. Az. Time Alt. Az.
30 Jan 7.2 18:55:51 10° S 18:56:34 10° SSE 18:57:17 10° SSE visible
30 Jan 7.4 20:46:05 10° SSW 20:46:11 10° SSW 20:46:11 10° SSW visible
31 Jan 7.0 19:45:34 10° SSW 19:47:55 12° S 19:48:57 12° SSE visible
01 Feb 7.1 18:45:28 10° S 18:47:18 11° S 18:49:09 10° SSE visible
01 Feb 7.3 20:37:45 10° SSW 20:38:05 10° SSW 20:38:05 10° SSW visible
02 Feb 7.1 19:36:40 10° SSW 19:38:41 12° S 19:40:43 10° SSE visible
03 Feb 7.1 18:36:00 10° SSW 18:38:03 12° S 18:40:06 10° SSE visible
04 Feb 7.3 19:28:40 10° SSW 19:29:26 10° S 19:30:11 10° S visible
05 Feb 7.2 18:27:04 10° SSW 18:28:48 11° S 18:30:33 10° SSE visible
